星链-6203 (STARLINK-6203 )

导读

STARLINK-6203是美国太空探索技术公司星链卫星互联网项目的卫星,于2023年6月12日发射升空。它属于星链低轨卫星组网的一部分,运行在近地轨道,承担全球卫星互联网通信传输任务,凭借星链规模化低轨星座布局,助力拓展全球网络覆盖范围,尤其服务偏远地区与特殊场景的互联网接入需求。

基本信息
目录编号:
56899
目录名称:
STARLINK-6203
国际标识:
2023-083Z
轨道中心:
EARTH
卫星名称:
星链-6203
卫星全名:
星链-6203 (STARLINK-6203 )
卫星状态:
在轨 (已飞行1180 天)
发射日期:
2023-06-12 UTC
国别 :
美国 (US)
星等 :
--
轨道信息
数据来源 国际轨道数据 AOE轨道数据
星历时间 2026-09-04T07:51:31+0800
12小时前
查看轨道信息
2026-09-03T23:00:00+0800
21小时前
查看轨道信息
半长轴 6861.194km 6861.195km
偏心率 0.0001081 0.0001269
轨道倾角 43.003° 43.003°
近地点辐角 270.359° 258.026°
升交点赤经 154.483° 156.568°
平近点角 89.714° 229.821°
近地点 482.315km 482.187km
远地点 483.799km 483.929km
周期 94.267分钟 94.267分钟
每日圈数 15.275774 15.275772
详细信息
固有亮度:
5
最大亮度:
2.4
卫星平台:
Starlink v1.5
覆盖范围:
全球
运营商:
太空探索技术公司
运营商所在国:
美国
制造商(研发单位):
太空探索技术公司
制造商所在国:
美国
使用方式:
暂无
卫星简介
星链(Starlink)计划是由太空探索技术公司(SpaceX)提出的一个巨型低轨卫星互联网星座项目,计划在2019年至2024年间在太空搭建由约1.2万颗卫星组成的“星链”网络,其中1584颗将部署在地球上空550千米处的近地轨道,并从2020年开始工作。该卫星仍在工作。
2D轨道图
3D轨道图
轨道高度分析图
轨道倾角分析图
轨道综合分析图
查看轨道综合分析图